Location: Haram ta Haram Freeway
(35.0583°N, 51.4202°E)
Time: 14:39:17
(UTC+04:30)

CAS-4A - Pass Details

Date: 09 July 2020
Orbit: 528 x 545 km, 43.0° (Epoch: 02 August)

Event Time Altitude Azimuth Distance (km) Brightness Sun altitude
Exits shadow 02:41:46 23° 73° (ENE) 1,167 ? -28.6°
Drops below altitude 10° 02:43:25 10° 67° (ENE) 1,786 ? -28.4°
Sets 02:45:40 0° 65° (ENE) 2,676 ? -28.3°
